Concord, NC

5:12 PM EDT on March 27, 2017 (GMT -0400)
Concord Regional

Weather History for KJQF - December, 2011

Change the Weather History Date:

Wednesday, December 21, 2011

  Actual Average (KCLT) Record (KCLT)
Temperature  
Mean Temperature 56 °F -  
Max Temperature 62 °F 50 °F 73 °F (2013)
Min Temperature 51 °F 34 °F 10 °F (1901)
Degree Days  
Heating Degree Days 8    
Growing Degree Days 6 (Base 50)    
Moisture  
Dew Point 55 °F    
Average Humidity 94    
Maximum Humidity 100    
Minimum Humidity 82    
Precipitation  
Precipitation 0.04 in - - ()
Sea Level Pressure  
Sea Level Pressure 30.09 in    
Wind  
Wind Speed 3 mph (SSW)    
Max Wind Speed 18 mph    
Max Gust Speed 22 mph    
Visibility 4 miles    
Events Rain    
Averages and records for this station are not official NWS values.
T = Trace of Precipitation, MM = Missing Value Source: NWS Daily Summary

Daily Weather History Graph

Daily Weather History Graph

Search for Another Location

Airport or City:

Trip Planner

Search our weather history database for the weather conditions in past years. The results will help you decide how hot, cold, wet, or windy it might be!

Date:

Astronomy

Dec. 21, 2011 Rise Set
Actual Time 7:27 AM EST 5:13 PM EST
Civil Twilight 6:59 AM EST 5:42 PM EST
Nautical Twilight 6:27 AM EST 6:14 PM EST
Astronomical Twilight 5:56 AM EST 6:45 PM EST
Moon 4:01 AM EST (12/21) 2:30 PM EST (12/21)
Length of Visible Light 10h 42m
Length of Day
9h 46m
Waning Crescent, 12% of the Moon is Illuminated
Dec 21
Waning Crescent
Dec 24
New
Jan 1
First Quarter
Jan 9
Full
Jan 16
Last Quarter

Hourly Weather History & Observations

Time (EST) Temp. Dew Point Humidity Pressure Visibility Wind Dir Wind Speed Gust Speed Precip Events Conditions
12:15 AM 53.6 °F 51.8 °F 94% 30.19 in 2.5 mi Calm Calm - N/A   Light Drizzle
12:35 AM 53.6 °F 51.8 °F 94% 30.18 in 2.0 mi Calm Calm - 0.01 in Rain Light Rain
12:55 AM 53.6 °F 51.8 °F 94% 30.17 in 1.0 mi Calm Calm - 0.01 in Rain Light Rain
1:15 AM 53.6 °F 51.8 °F 94% 30.17 in 2.0 mi Calm Calm - 0.01 in Rain Light Rain
1:35 AM 53.6 °F 51.8 °F 94% 30.16 in 4.0 mi Calm Calm - 0.02 in   Overcast
1:55 AM 53.6 °F 51.8 °F 94% 30.16 in 4.0 mi Calm Calm - 0.02 in   Overcast
2:15 AM 53.6 °F 51.8 °F 94% 30.15 in 1.5 mi Calm Calm - N/A   Overcast
2:35 AM 51.8 °F 51.8 °F 100% 30.15 in 0.8 mi Calm Calm - N/A   Overcast
2:55 AM 53.6 °F 51.8 °F 94% 30.16 in 1.0 mi Calm Calm - N/A   Drizzle
3:15 AM 51.8 °F 51.8 °F 100% 30.15 in 0.5 mi Calm Calm - N/A   Light Drizzle
3:35 AM 53.6 °F 51.8 °F 94% 30.15 in 0.8 mi Calm Calm - N/A   Overcast
3:55 AM 53.6 °F 51.8 °F 94% 30.13 in 1.2 mi Calm Calm - N/A   Overcast
4:15 AM 53.6 °F 51.8 °F 94% 30.12 in 1.0 mi Calm Calm - N/A   Overcast
4:35 AM 51.8 °F 51.8 °F 100% 30.12 in 0.8 mi Calm Calm - N/A   Overcast
4:55 AM 51.8 °F 50.0 °F 94% 30.11 in 1.0 mi Calm Calm - N/A   Overcast
5:15 AM 51.8 °F 51.8 °F 100% 30.11 in 1.2 mi Calm Calm - N/A   Mostly Cloudy
5:35 AM 51.8 °F 51.8 °F 100% 30.11 in 1.2 mi Calm Calm - N/A   Overcast
5:55 AM 51.8 °F 51.8 °F 100% 30.11 in 1.0 mi Calm Calm - N/A   Overcast
6:15 AM 51.8 °F 51.8 °F 100% 30.12 in 1.8 mi Calm Calm - N/A Rain Light Rain
6:35 AM 51.8 °F 51.8 °F 100% 30.11 in 1.2 mi Calm Calm - 0.01 in Rain Rain
6:55 AM 53.6 °F 53.6 °F 100% 30.12 in 3.0 mi Calm Calm - N/A Rain Light Rain
7:45 AM 55.4 °F 53.6 °F 94% 30.10 in 1.0 mi SSE 4.6 mph - N/A Rain Light Rain
8:55 AM 55.4 °F 55.4 °F 100% 30.09 in 1.0 mi Calm Calm - N/A Rain Heavy Rain
9:55 AM 59.0 °F 57.2 °F 94% 30.09 in 4.0 mi SSW 10.4 mph 16.1 mph N/A Rain Light Rain
10:55 AM 60.8 °F 57.2 °F 88% 30.09 in 2.0 mi SW 8.1 mph 16.1 mph N/A Rain Rain
12:55 PM 62.6 °F 60.8 °F 94% 30.01 in 3.0 mi SW 8.1 mph - N/A Rain Heavy Rain
1:55 PM 62.6 °F 60.8 °F 94% 29.99 in 2.0 mi SW 11.5 mph 18.4 mph N/A Rain Rain
2:55 PM 62.6 °F 60.8 °F 94% 29.98 in 2.0 mi South 6.9 mph - N/A Rain Rain
3:55 PM 62.6 °F 60.8 °F 94% 29.99 in 4.0 mi SSW 18.4 mph 21.9 mph N/A Rain Light Rain
4:55 PM 62.6 °F 60.8 °F 94% 30.02 in 4.0 mi SSW 10.4 mph - N/A Rain Light Rain
5:55 PM 62.6 °F 60.8 °F 94% 30.00 in 10.0 mi SSW 12.7 mph 17.3 mph N/A   Overcast
6:55 PM 62.6 °F 59.0 °F 88% 30.03 in 10.0 mi SSW 9.2 mph 17.3 mph N/A   Overcast
7:55 PM 62.6 °F 57.2 °F 82% 30.04 in 10.0 mi SSW 10.4 mph 18.4 mph N/A   Overcast
8:15 PM 62.6 °F 57.2 °F 82% 30.05 in 10.0 mi South 9.2 mph - N/A   Overcast
8:35 PM 62.6 °F 57.2 °F 82% 30.05 in 10.0 mi SSW 12.7 mph - N/A   Overcast
8:55 PM 60.8 °F 57.2 °F 88% 30.05 in 10.0 mi SSW 10.4 mph - N/A   Overcast
9:15 PM 62.6 °F 57.2 °F 82% 30.04 in 10.0 mi South 8.1 mph - N/A   Overcast
9:35 PM 60.8 °F 59.0 °F 94% 30.05 in 10.0 mi SSW 6.9 mph - N/A   Overcast
9:55 PM 60.8 °F 59.0 °F 94% 30.05 in 7.0 mi SSW 6.9 mph - N/A   Overcast
10:15 PM 60.8 °F 59.0 °F 94% 30.05 in 5.0 mi SSW 9.2 mph - N/A   Overcast
10:35 PM 60.8 °F 59.0 °F 94% 30.05 in 5.0 mi SSW 9.2 mph - N/A   Overcast
10:55 PM 60.8 °F 59.0 °F 94% 30.05 in 7.0 mi SW 5.8 mph - N/A   Overcast
11:15 PM 60.8 °F 59.0 °F 94% 30.05 in 5.0 mi SSW 8.1 mph - N/A   Overcast
11:35 PM 60.8 °F 59.0 °F 94% 30.05 in 3.0 mi SSW 5.8 mph - N/A   Overcast
11:55 PM 60.8 °F 60.8 °F 100% 30.05 in 5.0 mi SSW 6.9 mph - N/A   Overcast